Location: Corralito
(10.2667°N, 66.9500°W)
Time: 10:14:05
(UTC+00:00)

GPS 2-15 Rocket1 - Pass Details

Date: 08 December 2023
Orbit: 617 x 666 km, 19.8° (Epoch: 02 March)

Event Time Altitude Azimuth Distance (km) Brightness Sun altitude
Exits shadow 09:40:51 19° 294° (WNW) 1,485 4.3 -12.8°
Maximum altitude 09:44:09 74° 17° (NNE) 650 3.1 -12.0°
Drops below altitude 10° 09:48:52 10° 103° (ESE) 2,008 7.2 -11.0°
Sets 09:51:15 0° 104° (ESE) 2,926 8.7 -10.4°
